| time (UTC) | temp F | wind direction | speed knots | gust knots | rain 1hr in | rain 24hr in | rain mn in | humidity % | barometer mb |
| 20260904114407 | 86 | 181 | 0.0 | 4.3 | 0.00 | 0.00 | 0.00 | 65 | 1019.9 |
| 20260904113904 | 85 | 202 | 1.7 | 4.3 | 0.00 | 0.00 | 0.00 | 66 | 1019.9 |
| 20260904113404 | 84 | 204 | 0.9 | 2.6 | 0.00 | 0.00 | 0.00 | 67 | 1020.0 |
| 20260904111908 | 85 | 181 | 0.9 | 2.6 | 0.00 | 0.00 | 0.00 | 66 | 1020.0 |
| 20260904110405 | 84 | 193 | 1.7 | 4.3 | 0.00 | 0.00 | 0.00 | 66 | 1020.0 |
| 20260904104905 | 84 | 228 | 1.7 | 2.6 | 0.00 | 0.00 | 0.00 | 67 | 1020.0 |
| 20260904104404 | 84 | 142 | 0.9 | 1.7 | 0.00 | 0.00 | 0.00 | 68 | 1020.0 |
| 20260904103904 | 84 | 164 | 0.9 | 1.7 | 0.00 | 0.00 | 0.00 | 70 | 1020.0 |
| 20260904103408 | 84 | 157 | 0.9 | 2.6 | 0.00 | 0.00 | 0.00 | 71 | 1020.0 |
| 20260904101404 | 83 | 172 | 0.9 | 2.6 | 0.00 | 0.00 | 0.00 | 71 | 1020.1 |
| 20260904100909 | 83 | 202 | 0.9 | 2.6 | 0.00 | 0.00 | 0.00 | 72 | 1020.1 |
| 20260904094904 | 83 | 221 | 0.9 | 2.6 | 0.00 | 0.00 | 0.00 | 74 | 1020.4 |
| 20260904094404 | 82 | 225 | 0.9 | 4.3 | 0.00 | 0.00 | 0.00 | 73 | 1020.4 |
| 20260904093905 | 83 | 243 | 0.9 | 4.3 | 0.00 | 0.00 | 0.00 | 72 | 1020.3 |
| 20260904093407 | 83 | 253 | 0.9 | 4.3 | 0.00 | 0.00 | 0.00 | 73 | 1020.2 |
| 20260904091407 | 82 | 231 | 0.9 | 2.6 | 0.00 | 0.00 | 0.00 | 75 | 1020.3 |
| 20260904090907 | 82 | 233 | 1.7 | 2.6 | 0.00 | 0.00 | 0.00 | 74 | 1020.3 |
| 20260904090407 | 82 | 229 | 0.9 | 2.6 | 0.00 | 0.00 | 0.00 | 74 | 1020.4 |
| 20260904084907 | 81 | 96 | 0.0 | 1.7 | 0.00 | 0.00 | 0.00 | 74 | 1020.1 |
| 20260904084407 | 81 | 145 | 0.9 | 1.7 | 0.00 | 0.00 | 0.00 | 74 | 1020.1 |
| 20260904083906 | 81 | 165 | 0.9 | 2.6 | 0.00 | 0.00 | 0.00 | 74 | 1020.0 |
| 20260904083407 | 81 | 165 | 0.9 | 2.6 | 0.00 | 0.00 | 0.00 | 74 | 1020.0 |
| 20260904081907 | 80 | 155 | 0.9 | 2.6 | 0.00 | 0.00 | 0.00 | 75 | 1019.9 |
| 20260904081406 | 80 | 163 | 0.9 | 1.7 | 0.00 | 0.00 | 0.00 | 75 | 1020.0 |
| 20260904080406 | 80 | 211 | 0.0 | 1.7 | 0.00 | 0.00 | 0.00 | 75 | 1020.0 |
| 20260904074407 | 83 | 178 | 0.0 | 0.9 | 0.00 | 0.00 | 0.00 | 73 | 1019.8 |
| 20260904073907 | 82 | 178 | 0.0 | 0.9 | 0.00 | 0.00 | 0.00 | 73 | 1019.9 |
| 20260904073407 | 82 | 178 | 0.0 | 0.9 | 0.00 | 0.00 | 0.00 | 74 | 1019.9 |
| 20260904071906 | 80 | 178 | 0.0 | 0.9 | 0.00 | 0.00 | 0.00 | 77 | 1019.8 |
| 20260904071407 | 79 | 261 | 0.0 | 0.9 | 0.00 | 0.00 | 0.00 | 78 | 1019.7 |
| 20260904070907 | 78 | 23 | 0.0 | 0.0 | 0.00 | 0.00 | 0.00 | 78 | 1019.7 |
| 20260904070406 | 77 | 23 | 0.0 | 0.0 | 0.00 | 0.00 | 0.00 | 79 | 1019.6 |
| 20260904064907 | 76 | 23 | 0.0 | 0.0 | 0.00 | 0.00 | 0.00 | 80 | 1019.4 |
| 20260904064407 | 75 | 23 | 0.0 | 0.9 | 0.00 | 0.00 | 0.00 | 81 | 1019.4 |
| 20260904063907 | 75 | 23 | 0.0 | 0.9 | 0.00 | 0.00 | 0.00 | 81 | 1019.3 |
| 20260904063407 | 75 | 23 | 0.9 | 2.6 | 0.00 | 0.00 | 0.00 | 82 | 1019.3 |
| 20260904061907 | 74 | 30 | 0.9 | 1.7 | 0.00 | 0.00 | 0.00 | 81 | 1019.2 |
| 20260904061406 | 74 | 33 | 0.9 | 1.7 | 0.00 | 0.00 | 0.00 | 81 | 1019.2 |
| 20260904060907 | 74 | 42 | 1.7 | 1.7 | 0.00 | 0.00 | 0.00 | 81 | 1019.2 |
| 20260904060406 | 74 | 58 | 0.9 | 2.6 | 0.00 | 0.00 | 0.00 | 81 | 1019.3 |
| 20260904054907 | 73 | 41 | 1.7 | 2.6 | 0.00 | 0.00 | 0.00 | 81 | 1019.3 |
| 20260904054407 | 73 | 26 | 1.7 | 2.6 | 0.00 | 0.00 | 0.00 | 81 | 1019.4 |
| 20260904053906 | 74 | 34 | 1.7 | 2.6 | 0.00 | 0.00 | 0.00 | 82 | 1019.3 |
| 20260904053406 | 74 | 33 | 1.7 | 2.6 | 0.00 | 0.00 | 0.00 | 82 | 1019.3 |
| 20260904051906 | 73 | 21 | 1.7 | 2.6 | 0.00 | 0.00 | 0.00 | 82 | 1019.3 |
| 20260904051409 | 73 | 29 | 1.7 | 1.7 | 0.00 | 0.00 | 0.00 | 82 | 1019.3 |
| 20260904050907 | 73 | 34 | 1.7 | 2.6 | 0.00 | 0.00 | 0.00 | 81 | 1019.2 |
| 20260904050406 | 74 | 30 | 1.7 | 2.6 | 0.00 | 0.00 | 0.00 | 81 | 1019.2 |
| 20260904044907 | 74 | 27 | 0.9 | 1.7 | 0.00 | 0.00 | 0.00 | 80 | 1018.9 |
| 20260904044406 | 74 | 27 | 0.9 | 1.7 | 0.00 | 0.00 | 0.00 | 79 | 1018.9 |
| 20260904043906 | 74 | 24 | 1.7 | 2.6 | 0.00 | 0.00 | 0.00 | 77 | 1018.8 |
| 20260904043407 | 74 | 26 | 1.7 | 2.6 | 0.00 | 0.00 | 0.00 | 76 | 1018.8 |
| 20260904041906 | 74 | 21 | 1.7 | 2.6 | 0.00 | 0.00 | 0.00 | 78 | 1018.8 |
| 20260904040906 | 74 | 18 | 0.9 | 2.6 | 0.00 | 0.00 | 0.00 | 78 | 1018.6 |
| 20260904040406 | 75 | 27 | 1.7 | 2.6 | 0.00 | 0.00 | 0.00 | 77 | 1018.6 |
| 20260904034907 | 75 | 43 | 1.7 | 2.6 | 0.00 | 0.00 | 0.00 | 78 | 1018.7 |
| 20260904034406 | 75 | 43 | 1.7 | 2.6 | 0.00 | 0.00 | 0.00 | 77 | 1018.7 |
| 20260904033906 | 75 | 35 | 1.7 | 2.6 | 0.00 | 0.00 | 0.00 | 74 | 1018.7 |
| 20260904033407 | 74 | 74 | 0.9 | 2.6 | 0.00 | 0.00 | 0.00 | 71 | 1018.8 |
| 20260904031906 | 74 | 53 | 2.6 | 2.6 | 0.00 | 0.00 | 0.00 | 71 | 1018.7 |
| 20260904031406 | 74 | 66 | 0.9 | 2.6 | 0.00 | 0.00 | 0.00 | 73 | 1018.7 |
| 20260904030406 | 74 | 28 | 1.7 | 2.6 | 0.00 | 0.00 | 0.00 | 76 | 1018.7 |
| 20260904024906 | 74 | 34 | 1.7 | 2.6 | 0.00 | 0.00 | 0.00 | 72 | 1018.8 |
| 20260904024406 | 75 | 23 | 1.7 | 2.6 | 0.00 | 0.00 | 0.00 | 73 | 1018.8 |
| 20260904023906 | 75 | 36 | 1.7 | 2.6 | 0.00 | 0.00 | 0.00 | 74 | 1018.7 |
| 20260904023406 | 75 | 38 | 0.9 | 1.7 | 0.00 | 0.00 | 0.00 | 73 | 1018.7 |
| 20260904021906 | 75 | 39 | 0.9 | 1.7 | 0.00 | 0.00 | 0.00 | 71 | 1018.7 |
| 20260904021407 | 75 | 32 | 1.7 | 1.7 | 0.00 | 0.00 | 0.00 | 71 | 1018.7 |
| 20260904020906 | 75 | 43 | 0.9 | 2.6 | 0.00 | 0.00 | 0.00 | 70 | 1018.7 |
| 20260904020406 | 75 | 47 | 1.7 | 2.6 | 0.00 | 0.00 | 0.00 | 70 | 1018.7 |
| 20260904014905 | 75 | 49 | 0.9 | 1.7 | 0.00 | 0.00 | 0.00 | 71 | 1018.7 |
| 20260904014406 | 75 | 49 | 0.9 | 2.6 | 0.00 | 0.00 | 0.00 | 71 | 1018.7 |
| 20260904013906 | 75 | 51 | 1.7 | 2.6 | 0.00 | 0.00 | 0.00 | 71 | 1018.7 |
| 20260904013406 | 75 | 41 | 0.9 | 2.6 | 0.00 | 0.00 | 0.00 | 71 | 1018.6 |
| 20260904011906 | 75 | 34 | 0.9 | 2.6 | 0.00 | 0.00 | 0.00 | 71 | 1018.8 |
| 20260904011406 | 75 | 37 | 0.9 | 1.7 | 0.00 | 0.00 | 0.00 | 70 | 1018.8 |
| 20260904010905 | 75 | 30 | 0.9 | 1.7 | 0.00 | 0.00 | 0.00 | 70 | 1018.8 |
| 20260904010406 | 75 | 44 | 0.9 | 2.6 | 0.00 | 0.00 | 0.00 | 69 | 1018.8 |
| 20260904004906 | 75 | 45 | 0.9 | 2.6 | 0.00 | 0.00 | 0.00 | 68 | 1018.7 |
| 20260904003406 | 75 | 29 | 1.7 | 2.6 | 0.00 | 0.00 | 0.00 | 69 | 1018.7 |
| 20260904001906 | 75 | 36 | 0.9 | 2.6 | 0.00 | 0.00 | 0.00 | 69 | 1018.8 |
| 20260904000905 | 75 | 31 | 1.7 | 2.6 | 0.00 | 0.00 | 0.00 | 69 | 1018.9 |
| 20260903234407 | 75 | 35 | 1.7 | 1.7 | 0.00 | 0.00 | 0.00 | 72 | 1018.9 |
| 20260903233908 | 76 | 35 | 1.7 | 2.6 | 0.00 | 0.00 | 0.00 | 72 | 1018.9 |
| 20260903233406 | 75 | 39 | 0.9 | 2.6 | 0.00 | 0.00 | 0.00 | 71 | 1018.9 |
| 20260903231906 | 75 | 29 | 0.9 | 1.7 | 0.00 | 0.00 | 0.00 | 69 | 1018.8 |
| 20260903231406 | 76 | 30 | 0.9 | 1.7 | 0.00 | 0.00 | 0.00 | 69 | 1018.8 |
| 20260903224905 | 76 | 26 | 1.7 | 2.6 | 0.00 | 0.00 | 0.00 | 69 | 1019.0 |
| 20260903224422 | 76 | 37 | 1.7 | 2.6 | 0.00 | 0.00 | 0.00 | 69 | 1018.9 |
| 20260903223407 | 76 | 25 | 1.7 | 2.6 | 0.00 | 0.00 | 0.00 | 70 | 1018.9 |
| 20260903221905 | 76 | 45 | 0.9 | 1.7 | 0.00 | 0.00 | 0.00 | 70 | 1018.8 |
| 20260903220906 | 76 | 51 | 1.7 | 2.6 | 0.00 | 0.00 | 0.00 | 70 | 1018.9 |
| 20260903220405 | 76 | 56 | 0.9 | 2.6 | 0.00 | 0.00 | 0.00 | 69 | 1019.0 |
| 20260903213909 | 75 | 27 | 0.9 | 2.6 | 0.00 | 0.00 | 0.00 | 74 | 1018.9 |
| 20260903211908 | 76 | 38 | 1.7 | 1.7 | 0.00 | 0.00 | 0.00 | 80 | 1019.0 |
| 20260903211406 | 76 | 31 | 1.7 | 2.6 | 0.00 | 0.00 | 0.00 | 81 | 1019.0 |
| 20260903210405 | 76 | 25 | 1.7 | 2.6 | 0.00 | 0.00 | 0.00 | 82 | 1019.0 |
| 20260903204405 | 77 | 24 | 0.9 | 1.7 | 0.00 | 0.00 | 0.00 | 80 | 1019.0 |
| 20260903203908 | 77 | 39 | 0.9 | 1.7 | 0.00 | 0.00 | 0.00 | 79 | 1018.9 |
| 20260903203406 | 77 | 38 | 0.9 | 2.6 | 0.00 | 0.00 | 0.00 | 78 | 1018.9 |
| 20260903201906 | 76 | 29 | 0.9 | 2.6 | 0.00 | 0.00 | 0.00 | 76 | 1018.9 |
| 20260903201405 | 76 | 24 | 1.7 | 2.6 | 0.00 | 0.00 | 0.00 | 76 | 1018.9 |
| 20260903200906 | 76 | 27 | 1.7 | 2.6 | 0.00 | 0.00 | 0.00 | 77 | 1018.9 |
| 20260903193905 | 77 | 28 | 1.7 | 2.6 | 0.00 | 0.00 | 0.00 | 77 | 1018.8 |
| 20260903193405 | 77 | 36 | 0.9 | 2.6 | 0.00 | 0.00 | 0.00 | 77 | 1018.8 |
| 20260903191906 | 77 | 37 | 0.9 | 1.7 | 0.00 | 0.00 | 0.00 | 77 | 1018.8 |
| 20260903190905 | 77 | 36 | 0.9 | 1.7 | 0.00 | 0.00 | 0.00 | 77 | 1018.8 |
| 20260903190406 | 77 | 47 | 0.9 | 2.6 | 0.00 | 0.00 | 0.00 | 77 | 1018.8 |
| 20260903184905 | 78 | 11 | 0.0 | 1.7 | 0.00 | 0.00 | 0.00 | 78 | 1018.6 |
| 20260903184405 | 78 | 28 | 0.9 | 1.7 | 0.00 | 0.00 | 0.00 | 78 | 1018.7 |
| 20260903183905 | 78 | 28 | 0.9 | 1.7 | 0.00 | 0.00 | 0.00 | 78 | 1018.6 |
| 20260903183405 | 78 | 37 | 1.7 | 2.6 | 0.00 | 0.00 | 0.00 | 78 | 1018.5 |
| 20260903181905 | 79 | 44 | 0.9 | 1.7 | 0.00 | 0.00 | 0.00 | 78 | 1018.5 |
| 20260903181405 | 79 | 36 | 0.9 | 2.6 | 0.00 | 0.00 | 0.00 | 78 | 1018.4 |
| 20260903180905 | 80 | 0 | 0.0 | 1.7 | 0.00 | 0.00 | 0.00 | 78 | 1018.4 |
| 20260903180405 | 80 | 0 | 0.0 | 1.7 | 0.00 | 0.00 | 0.00 | 78 | 1018.4 |
| 20260903174905 | 81 | 14 | 0.0 | 0.9 | 0.00 | 0.00 | 0.00 | 78 | 1018.4 |
| 20260903174406 | 81 | 53 | 0.0 | 0.9 | 0.00 | 0.00 | 0.00 | 77 | 1018.3 |
| 20260903173905 | 81 | 53 | 0.0 | 0.9 | 0.00 | 0.00 | 0.00 | 77 | 1018.3 |
| 20260903173405 | 81 | 301 | 0.0 | 2.6 | 0.00 | 0.00 | 0.00 | 76 | 1018.3 |
| 20260903171906 | 81 | 291 | 0.9 | 1.7 | 0.00 | 0.00 | 0.00 | 78 | 1018.4 |
| 20260903171407 | 81 | 277 | 0.9 | 1.7 | 0.00 | 0.00 | 0.00 | 78 | 1018.4 |
| 20260903170907 | 81 | 294 | 0.0 | 0.9 | 0.00 | 0.00 | 0.00 | 78 | 1018.4 |
| 20260903170406 | 81 | 275 | 0.0 | 2.6 | 0.00 | 0.00 | 0.00 | 78 | 1018.4 |
| 20260903164907 | 82 | 203 | 0.9 | 1.7 | 0.00 | 0.00 | 0.00 | 77 | 1018.3 |
| 20260903164406 | 82 | 229 | 0.9 | 2.6 | 0.00 | 0.00 | 0.00 | 77 | 1018.3 |
| 20260903163905 | 82 | 224 | 0.9 | 2.6 | 0.00 | 0.00 | 0.00 | 77 | 1018.3 |
| 20260903163405 | 82 | 299 | 0.9 | 2.6 | 0.00 | 0.00 | 0.00 | 77 | 1018.4 |
| 20260903161905 | 82 | 298 | 0.0 | 2.6 | 0.00 | 0.00 | 0.00 | 77 | 1018.5 |
| 20260903161405 | 82 | 201 | 0.9 | 2.6 | 0.00 | 0.00 | 0.00 | 76 | 1018.5 |
| 20260903160904 | 82 | 239 | 1.7 | 2.6 | 0.00 | 0.00 | 0.00 | 75 | 1018.4 |
| 20260903160406 | 82 | 244 | 0.9 | 2.6 | 0.00 | 0.00 | 0.00 | 75 | 1018.4 |
| 20260903154905 | 83 | 254 | 0.9 | 2.6 | 0.00 | 0.00 | 0.00 | 73 | 1018.4 |
| 20260903154406 | 83 | 241 | 0.9 | 2.6 | 0.00 | 0.00 | 0.00 | 73 | 1018.4 |
| 20260903153905 | 84 | 220 | 0.9 | 2.6 | 0.00 | 0.00 | 0.00 | 72 | 1018.5 |
| 20260903153405 | 84 | 237 | 0.9 | 2.6 | 0.00 | 0.00 | 0.00 | 74 | 1018.4 |
| 20260903151905 | 82 | 192 | 0.9 | 2.6 | 0.00 | 0.00 | 0.00 | 74 | 1018.5 |
| 20260903151406 | 83 | 224 | 1.7 | 2.6 | 0.00 | 0.00 | 0.00 | 73 | 1018.6 |
| 20260903150905 | 83 | 201 | 0.9 | 2.6 | 0.00 | 0.00 | 0.00 | 74 | 1018.5 |
| 20260903150405 | 83 | 252 | 0.9 | 2.6 | 0.00 | 0.00 | 0.00 | 73 | 1018.4 |
| 20260903144906 | 83 | 246 | 1.7 | 2.6 | 0.00 | 0.00 | 0.00 | 74 | 1018.6 |
| 20260903144405 | 83 | 264 | 1.7 | 2.6 | 0.00 | 0.00 | 0.00 | 73 | 1018.7 |
| 20260903143905 | 83 | 250 | 1.7 | 2.6 | 0.00 | 0.00 | 0.00 | 73 | 1018.9 |
| 20260903141905 | 84 | 235 | 1.7 | 2.6 | 0.00 | 0.00 | 0.00 | 72 | 1018.9 |
| 20260903141405 | 84 | 225 | 1.7 | 2.6 | 0.00 | 0.00 | 0.00 | 71 | 1018.9 |
| 20260903140906 | 84 | 174 | 0.9 | 2.6 | 0.00 | 0.00 | 0.00 | 72 | 1018.9 |
| 20260903140404 | 85 | 242 | 1.7 | 4.3 | 0.00 | 0.00 | 0.00 | 72 | 1019.0 |
| 20260903134905 | 84 | 191 | 1.7 | 4.3 | 0.00 | 0.00 | 0.00 | 73 | 1019.0 |
| 20260903134405 | 84 | 223 | 1.7 | 4.3 | 0.00 | 0.00 | 0.00 | 73 | 1019.1 |
| 20260903133904 | 83 | 200 | 1.7 | 2.6 | 0.00 | 0.00 | 0.00 | 73 | 1019.2 |
| 20260903133404 | 83 | 195 | 0.9 | 4.3 | 0.00 | 0.00 | 0.00 | 74 | 1019.1 |
| 20260903131405 | 84 | 229 | 1.7 | 2.6 | 0.00 | 0.00 | 0.00 | 71 | 1019.1 |
| 20260903130904 | 83 | 242 | 1.7 | 4.3 | 0.00 | 0.00 | 0.00 | 74 | 1019.1 |
| 20260903130404 | 84 | 218 | 1.7 | 4.3 | 0.00 | 0.00 | 0.00 | 72 | 1019.0 |
| 20260903124904 | 84 | 231 | 0.9 | 2.6 | 0.00 | 0.00 | 0.00 | 74 | 1019.0 |
| 20260903123905 | 83 | 177 | 0.9 | 4.3 | 0.00 | 0.00 | 0.00 | 73 | 1019.0 |
| 20260903123405 | 83 | 250 | 1.7 | 5.2 | 0.00 | 0.00 | 0.00 | 73 | 1019.0 |
| 20260903121904 | 84 | 160 | 0.9 | 1.7 | 0.00 | 0.00 | 0.00 | 73 | 1019.0 |
| 20260903121405 | 84 | 188 | 0.9 | 2.6 | 0.00 | 0.00 | 0.00 | 72 | 1019.0 |
| 20260903120904 | 84 | 151 | 0.9 | 2.6 | 0.00 | 0.00 | 0.00 | 74 | 1019.0 |
| 20260903120404 | 83 | 205 | 1.7 | 5.2 | 0.00 | 0.00 | 0.00 | 75 | 1019.2 |